World > North America > United States > Mississippi

Hourly Nason, MS Regional Weather

Feedback E-mail the Weather

Quick WX

Nason, MS Weather Maps

°F °C°F °C
Nason Weather Map
UTC Time: 6/30/2022, 20:19
Your Time:

Nason, MS Regional Weather

Expires:202206302100;;456813
ASUS44 KJAN 302010
RWRMS 

MISSISSIPPI HOURLY WEATHER ROUNDUP
NATIONAL WEATHER SERVICE JACKSON MS
300 PM CDT THU JUN 30 2022

NOTE: "FAIR: INDICATES FEW OR NO CLOUDS BELOW 12,000 FEET WITH NO
SIGNIFICANT WEATHER AND/OR OBSTRUCTIONS TO VISIBILITY.


MSZ001>002-007>008-010>013-018>021-025>028-034>036-302100-
NORTHWEST MISSISSIPPI
  
CITY           SKY/WX    TMP DP  RH WIND       PRES   REMARKS
BATESVILLE     FAIR      90  70  51 SE7       30.04F HX  95           
CLARKSDALE     PTSUNNY   90  72  55 VRB5      30.04F HX  96           
CLEVELAND      FAIR      90  73  58 S8        30.03F HX  97           
GREENWOOD      MOSUNNY   94  73  50 S8        30.03F HX 103           
GREENVILLE     MOSUNNY   91  75  59 SE6       30.02F HX 101           
OLIVE BRANCH   PTSUNNY   91  72  52 SE12      30.05F HX  98           
OXFORD         MOSUNNY   90  68  48 VRB3G14   30.07F HX  93           
TUNICA         SUNNY     92  71  50 S8        30.04F HX  97           
WINONA         PTSUNNY   92  69  47 S10       30.04F HX  97           
$$


SKY/WX - Weather  TMP - Temperature  DP - Dew Point  RH - Humidity
WIND - Wind Direction/Speed PRES - Barometric Pressure VSB - Visibility
WCI - Wind Chill Index E13G22 Wind - East Wind 13 mph/Gusts of 22 mph

Trending Headlines

Nason Radar Loop



Nason Quick Facts


National Two Day Weather Forecast


E-mail the Nason Weather Forecast

Voice your opinion or tell us about page issues...